www.pogodaiklimat.ru

Погода и климат >> Архив погоды >> Россия >> Хабаровский край >> Чегдомын


ПОГОДА в Чегдомыне

  • Прогноз погоды в Чегдомыне
  • Монитор погоды в Чегдомыне

АРХИВ ПОГОДЫ в Чегдомыне

Время (UTC), дата Ветер
(напр.,м/с)
 
Видим.   Явления Облачность Т
(С)
Тd
(С)
f
(%)
Тe
(С)
Тes
(С)
Комфортность P
(гПа)
Po
(гПа)
Тmin
(С)
Tmax
(С)
R
(мм)
R24
(мм)
S
(см)
06 14.05 ЮЗ 4-10
{13}
20 км {ливн. осадки} 8/4 1000 м
[Cb cap Ac trans Ci]
+18.8 +5.9 43 +19 +22 1006.9 964.5
09 14.05 Ю 4-10
{12}
50 км 10/4 1000 м
[Cb cap Ac trans Ci]
+17.1 +6.0 48 +17 +17 1006.6 964.0 +22.2 0.0
12 14.05 В 1
{11}
50 км 10/3 1000 м
[Cb cap Ac trans Ci]
+12.0 +6.4 69 +12 +12 1008.6 965.2
21 14.05 СЗ 1 50 км слаб. ливневой дождь, в посл. час гроза 10/6 600 м
[Cb cap Ci]
+6.7 +6.3 97 +5 +6 1009.4 965.2 +5.7 4
00 15.05 СВ 4 50 км в посл. час гроза {ливн. осадки} 8/6 600 м
[Cb cap Ci]
+8.6 +8.1 97 +5 +8 1009.0 965.1
03 15.05 Ю 1 50 км в посл. час ливневой дождь {гроза} 8/8 1000 м
[Cb cap]
+10.2 +9.1 93 +10 +14 1007.8 964.2
06 15.05 Ю 1 20 км слаб. ливневой дождь {гроза} 10/10 600 м
[Cb cap]
+12.8 +7.4 70 +13 +13 1006.0 962.8
09 15.05 Ю 1 50 км {ливн. осадки} 9/6 1000 м
[Cb cap Ci]
+12.4 +7.7 73 +13 +13 1005.0 961.9 +14.7 2
12 15.05 СВ 2 10 км слаб. ливневой дождь 10/10 600 м
[Cb cap]
+9.7 +6.7 82 +8 +8 1005.7 962.1
15 15.05 СВ 2 10 км слаб. ливневой дождь 10/10 600 м
[Cb cap]
+7.6 +7.2 97 +5 +5 1005.6 961.6
18 15.05 СВ 3 10 км слаб. дождь 10/0 600 м
[As op]
+8.1 +7.6 97 +5 +5 1004.3 960.5
21 15.05 В 2 20 км слаб. дождь {гроза} 10/0 600 м
[As op]
+8.3 +8.0 98 +6 +6 1004.1 960.4 +7.5 5
00 16.05 СВ 2 20 км {гроза, ливн. осадки} 10/6 600 м
[Cb cap Ci]
+10.2 +9.2 94 +9 +12 1001.2 957.9
03 16.05 Ю 3
{11}
20 км 10/8 600 м
[Cb cap Ci]
+16.5 +8.8 60 +16 +18 999.4 957.1
06 16.05 В 2 20 км гроза, ливневой дождь 10/10 600 м
[Cb cap]
+10.9 +10.6 98 +9 +9 999.3 956.2
09 16.05 Ю 2
{14}
10 км слаб. ливневой дождь {гроза} 10/10 600 м
[Cb cap]
+7.7 +7.2 97 +5 +5 1002.7 958.9 +19.5 9
12 16.05 Ю 1 20 км {гроза, ливн. осадки} 10/10 600 м
[Cb cap]
+8.0 +6.6 91 +7 +7 1002.9 959.1
18 16.05 ЮВ 1 20 км 10/10 600 м
[Cb cap]
+9.1 +3.7 69 +9 +9 1001.4 957.9
21 16.05 штиль 0 20 км 10/8 1000 м
[Cb cap Ci]
+7.4 +4.7 83 +7 +7 1001.7 957.9 +6.3 0.5
00 17.05 Ю 3
{10}
20 км в посл. час гроза 10/10 600 м
[Cb cap]
+13.0 +6.1 63 +12 +12 1000.8 957.8
03 17.05 Ю 4 20 км {ливн. осадки} 10/6 1000 м
[Cb cap Ci]
+17.5 +7.1 50 +17 +21 998.7 956.5
06 17.05 ЮВ 1
{15}
50 км {гроза, ливн. осадки} 10/6 1000 м
[Cb cap Ci]
+17.0 +7.8 55 +18 +22 999.2 956.9
09 17.05 ЮЗ 4
{12}
50 км 3/3 1000 м
[Cb cap]
+18.5 -2.0 25 +18 +19 1001.1 958.9 +19.8 3
12 17.05 ЮВ 1 50 км 1/0
[Ci fib]
+12.3 -4.2 31 +13 +13 1003.6 960.4
15 17.05 ЮВ 1 50 км 6/0
[Ci]
+10.0 -1.6 44 +10 +10 1002.6 959.0
18 17.05 ЮЗ 4
{14}
20 км в посл. час ливневой дождь 10/10 600 м
[Cb cap]
+10.5 +5.9 73 +8 +8 1003.1 959.7
21 17.05 ЮЗ 2
{11}
50 км {ливн. осадки} 10/10 600 м
[Cb cap]
+9.1 +6.4 83 +7 +7 1002.6 959.0 +8.9 0.3
00 18.05 ЮЗ 5-10
{10}
50 км {ливн. осадки} 10/3 1000 м
[Cb cap Ci]
+13.5 +6.3 62 +12 +15 1002.8 959.9
03 18.05 ЮЗ 7-12
{13}
50 км 10/3 1000 м
[Cb cap Ci]
+15.4 -0.9 33 +14 +17 1002.8 960.1
06 18.05 ЮЗ 4-10
{14}
50 км 8/0
[Ci]
+16.4 -0.9 31 +16 +22 1002.6 960.0
09 18.05 ЮЗ 4-10
{12}
50 км 10/0
[Ci]
+15.3 -2.5 29 +15 +16 1001.7 959.0 +17.5
12 18.05 Ю 1
{10}
50 км 6/3 1000 м
[Cb cap Ci]
+9.4 -0.0 52 +9 +9 1003.8 960.2
15 18.05 Ю 1
{11}
50 км {ливн. осадки} 6/3 600 м
[Cb cap Ci]
+5.0 +3.7 91 +4 +4 1005.9 961.5
18 18.05 Ю 2 50 км {ливн. осадки} 4/1 1000 м
[Cb cap Ci fib]
+5.0 +2.2 82 +2 +2 1007.5 963.0
21 18.05 Ю 1 50 км 10/0
[Ac und]
+6.5 +3.2 79 +6 +6 1009.5 965.2 +3.5 2
00 19.05 ЮЗ 1 4000 м 10/4
[Cb cap Cs]
+13.5 +4.5 54 +14 +20 1009.1 965.9
09 19.05 ЮЗ 2 50 км 10/4 1000 м
[Cb cap Ac und]
+16.9 +0.8 34 +17 +18 1005.6 963.0 +19.5
21 19.05 СВ 2 10 км слаб. ливневой дождь 10/10 600 м
[Cb cap]
+7.8 +6.6 92 +6 +6 998.5 954.9 +7.6 0.4
00 20.05 СВ 1 20 км слаб. ливневой дождь 10/10 600 м
[Cb cap]
+9.2 +8.5 95 +8 +8 996.1 952.8
09 20.05 СВ 2 50 км 10/10 1000 м
[Cb cap]
+13.1 +6.2 63 +13 +13 989.8 947.4 +13.1 8
12 20.05 СВ 3 20 км слаб. ливневой дождь 10/10 600 м
[Cb cap]
+11.9 +7.4 74 +10 +10 988.5 946.0
21 20.05 СВ 1 4000 м дождь {ливн. осадки} 10/0 600 м
[As op]
+9.3 +9.1 99 +9 +9 989.9 946.9 +8.8 20
00 21.05 СВ 1 50 км {ливн. осадки, дождь} 10/8 600 м
[Cb cap Ci]
+12.1 +10.9 92 +12 +14 989.3 946.8

 

Местоположение метеостанции Чегдомын (Хабаровский край, Россия): широта 51.17 долгота 132.90 высота над уровнем моря 374 м.

В архиве по умолчанию представлена погода в Чегдомыне за последнюю неделю. Архивные данные за месяц целиком и за предыдущие месяцы, начиная с января 2011 года, Вы можете получить, выбрав интересующий диапазон дат из раскрывающегося списка и нажав кнопку "Ввод!".


*Определитесь, кто Вы:
робот инопланетянин человек

Внимание! Время в таблицах - всемирное. Для получения местного времени необходимо прибавить поправку, которая равна 10 ч.

Смотрите также архив погоды в соседних городах и на ближайших метеорологических станциях:

Погода в Усть-Умальте (Хабаровский край, Россия) (55 км)
Погода в Чекунде (Хабаровский край, Россия) (59 км)
Погода в Верховье Урми (Хабаровский край, Россия) (132 км)
Погода в Сутуре (Хабаровский край, Россия) (135 км)
Погода в Софийском Прииске (Хабаровский край, Россия) (140 км)
Погода в Хуларине (Хабаровский край, Россия) (149 км)
Погода в Сектагли (Хабаровский край, Россия) (157 км)
Погода в Куре (Хабаровский край, Россия) (183 км)
Погода в Урми (Хабаровский край, Россия) (198 км)
Погода в Стойбе (Амурская область, Россия) (199 км)

Пояснения к столбцам:

Ветер - указаны скорость ветра в м/с - средняя за 10 мин, порывы в срок и между сроками (в фигурных скобках) и направление, откуда дует ветер: С - северный, СВ - северо-восточный, В - восточный, ЮВ - юго-восточный, Ю - южный, ЮЗ - юго-западный, З - западный, СЗ - северо-западный.
Видимость - горизонтальная дальность видимости в метрах или километрах. При видимости от 1 до 10 км при отсутствии осадков обычно наблюдается дымка, при ухудшении видимости до 1 км и менее - туман. В сухую погоду видимость может ухудшаться дымом, пылью или мглою.
Явления - указаны атмосферные явления, наблюдавшиеся в срок или в последний час перед сроком; фигурными скобками обозначены явления, наблюдавшиеся между сроками (за 1-3 часа до срока); квадратными скобками обозначены град или гололедные отложения с указанием их диаметра в мм.
Облачность - указаны через наклонную черту общая и нижняя облачность в баллах и высота нижней границы облаков в метрах; квадратными скобками обозначены формы облаков: Ci - перистые, Cs - перисто-слоистые, Cc - перисто-кучевые, Ac - высококучевые, As - высокослоистые, Sc - слоисто-кучевые, Ns - слоисто-дождевые, Cu - кучевые, Cb - кучево-дождевые. Подробнее классификацию облаков см. в Атласе облаков (PDF).
T - Температура воздуха - температура, измеренная на высоте 2 м над землей.
Td - Температура точки росы - температура, при понижении до которой содержащийся в воздухе водяной пар достигнет насыщения.
f - Относительная влажность воздуха - влажноcть воздуха, измеренная на высоте 2 м над землей.
Te - Эффективная температура - температура, которую ощущает одетый по сезону человек в тени. Характеристика душности погоды. При расчете учитывается влияние влажности воздуха и скорости ветра на теплоощущения человека.
Tes - Эффективная температура на солнце - температура, которую ощущает человек, с поправкой на солнечный нагрев. Характеристика знойности погоды. Зависит от высоты солнца над горизонтом, облачности и скорости ветра. Ночью, в пасмурную погоду, а также при ветре 12 м/с и более поправка равна нулю.
P - Атмосферное давление - приведенное к уровню моря атмосферное давление.
Po - Атмосферное давление - измеренное на уровне метеостанции атмосферное давление.
Tmin - Минимальная температура - минимум температуры воздуха на высоте 2 м над землей.
Tmax - Максимальная температура - максимум температуры воздуха на высоте 2 м над землей.
R - Количество осадков - Количество выпавших осадков за период времени, мм. При наведении курсора мыши на число - период времени, за который выпало указанное количество осадков.
R24 - Количество осадков - Количество выпавших осадков за 24 часа, мм.
S - Снежный покров - Высота снежного покрова, см. При наведении курсора мыши на число - состояние снежного покрова и степень покрытия местности в баллах.